Meteo18 Weather Cam more information Meteo18 Weather Cam


Thunder radar more information blitzortung!


Rain radar more information rain snow radar



Select another period ( hide this area )

Units Period Custom range Directly to
Metric English Both
Daily Weekly Monthly Yearly
use both date-selectors for a custom range
previous Day
With this date

WeatherUnderground graphs for this period ( click here )


Daily Summary for Monday 10 December 2018
Time Temp. ( °C ) Dew pt. ( °C ) Wind ( km/h ) from Gust ( km/h ) Pressure ( hPa ) Humid.( % ) Rainrate ( cm )
High8,7 6,3 24,1 WNW ( 902/1669 ) 27,4 1029,7 90 -
Average7,7 5,8 9,7 WNW #86/172 16,5 1028,0 88 -
Low7,1 5,1 -   8,0 1025,6 79 -
Daily Tabular details for Monday 10 December 2018
Time Temp. ( °C ) Dew pt. ( °C ) Wind ( km/h ) from Gust ( km/h ) Pressure ( hPa ) Humid.( % ) Rainrate ( cm )
00:04 8,4 5,9 9,7 West 22,5 1025,6 84 -
00:08 8,4 5,9 6,4 WNW 20,9 1025,6 84 -
00:14 8,4 6,0 14,3 WNW 22,5 1026,0 85 -
00:18 8,4 6,0 20,9 WSW 25,7 1026,0 85 -
00:24 8,3 5,9 13,0 West 27,4 1026,0 85 -
00:28 8,3 6,1 16,3 West 20,9 1026,0 86 -
00:34 8,2 6,0 17,7 WSW 20,9 1026,0 86 -
00:38 8,1 5,9 11,1 WNW 16,1 1026,0 86 -
00:44 8,1 5,9 13,0 West 17,7 1026,0 86 -
00:48 8,0 6,0 6,4 West 19,3 1026,0 87 -
00:54 8,1 6,1 6,4 West 20,9 1026,3 87 -
00:58 8,1 6,1 22,7 WNW 22,5 1026,3 87 -
01:04 8,1 6,2 17,7 WNW 20,9 1026,3 88 -
01:08 8,1 6,2 14,3 WNW 20,9 1026,3 88 -
01:14 8,1 6,2 6,4 West 20,9 1026,3 88 -
01:18 8,1 6,1 11,1 WSW 22,5 1026,3 87 -
01:24 8,0 6,1 13,0 West 14,5 1026,6 88 -
01:28 8,0 6,1 11,1 WSW 20,9 1026,6 88 -
01:34 7,9 6,0 6,4 WNW 14,5 1026,6 88 -
01:38 7,8 5,9 9,7 NW 20,9 1026,6 88 -
01:44 7,8 5,9 16,3 WNW 22,5 1026,6 88 -
01:48 7,8 5,9 13,0 WSW 20,9 1026,6 88 -
01:54 7,8 5,9 6,4 West 17,7 1026,6 88 -
01:58 7,8 6,1 7,9 West 20,9 1026,6 89 -
02:04 7,8 6,1 13,0 WSW 22,5 1026,6 89 -
02:08 7,8 6,1 24,1 WNW 25,7 1026,6 89 -
02:14 7,8 6,1 17,7 WNW 17,7 1026,6 89 -
02:18 7,8 6,1 16,3 WNW 27,4 1026,6 89 -
02:24 7,8 6,1 11,1 West 22,5 1026,6 89 -
02:28 7,8 6,1 9,7 WNW 22,5 1027,0 89 -
02:34 7,8 6,1 14,3 WNW 22,5 1027,0 89 -
02:38 7,8 6,3 9,7 WNW 17,7 1027,0 90 -
02:44 7,7 6,2 9,7 WNW 17,7 1027,0 90 -
02:48 7,7 6,2 11,1 West 19,3 1027,3 90 -
02:54 7,8 6,1 11,1 WNW 19,3 1027,3 89 -
02:58 7,8 6,1 11,1 West 17,7 1027,3 89 -
03:04 7,7 6,2 16,3 WNW 16,1 1027,3 90 -
03:08 7,8 6,3 14,3 WNW 27,4 1027,3 90 -
03:14 7,8 6,3 16,3 WNW 22,5 1027,3 90 -
03:18 7,8 6,3 14,3 West 19,3 1027,3 90 -
03:24 7,8 6,1 13,0 WNW 19,3 1027,3 89 -
03:28 7,8 6,1 14,3 WNW 19,3 1027,3 89 -
03:34 7,8 6,1 13,0 West 22,5 1027,3 89 -
03:38 7,8 6,1 13,0 WNW 17,7 1027,3 89 -
03:44 7,8 6,1 19,5 NW 25,7 1027,3 89 -
03:48 7,8 6,1 11,1 WNW 22,5 1027,3 89 -
03:54 7,8 6,1 9,7 NW 22,5 1027,3 89 -
03:58 7,7 6,0 7,9 WNW 16,1 1027,3 89 -
04:04 7,7 6,2 11,1 WNW 17,7 1027,3 90 -
04:08 7,7 6,2 11,1 WSW 22,5 1027,3 90 -
04:14 7,7 6,2 7,9 WNW 17,7 1027,3 90 -
04:18 7,6 6,1 3,2 West 19,3 1027,3 90 -
04:24 7,6 6,1 6,4 West 17,7 1027,3 90 -
04:28 7,6 6,1 7,9 WNW 14,5 1027,3 90 -
04:34 7,6 6,1 7,9 NNW 22,5 1027,3 90 -
04:38 7,6 6,1 11,1 NNW 19,3 1027,3 90 -
04:44 7,6 6,1 9,7 WNW 14,5 1027,3 90 -
04:48 7,6 6,1 11,1 WNW 19,3 1027,3 90 -
04:54 7,6 6,1   Calm 20,9 1027,3 90 -
04:58 7,6 5,9 16,3 West 17,7 1027,3 89 -
05:04 7,6 5,9 7,9 WNW 14,5 1027,3 89 -
05:08 7,6 5,9 4,7 West 17,7 1027,3 89 -
05:14 7,6 5,9 6,4 WNW 9,7 1027,3 89 -
05:18 7,6 5,9 9,7 West 16,1 1027,3 89 -
05:24 7,7 6,0 4,7 WNW 11,3 1027,3 89 -
05:28 7,6 5,9 6,4 West 9,7 1027,3 89 -
05:32 7,7 6,0 14,3 WNW 14,5 1027,3 89 -
05:38 7,7 6,0 6,4 West 16,1 1027,3 89 -
05:43 7,7 6,0 6,4 West 9,7 1027,3 89 -
05:49 7,7 6,0 9,7 West 14,5 1027,3 89 -
05:53 7,7 6,0 9,7 WNW 14,5 1027,3 89 -
05:59 7,7 6,0 3,2 West 14,5 1027,3 89 -
06:03 7,7 6,0 6,4 West 14,5 1027,7 89 -
06:09 7,7 6,0 9,7 WNW 12,9 1027,7 89 -
06:13 7,7 6,0 11,1 WNW 12,9 1027,3 89 -
06:19 7,7 6,0 6,4 WSW 11,3 1027,3 89 -
06:23 7,7 6,0 16,3 WNW 19,3 1027,7 89 -
06:29 7,7 6,0 9,7 NW 17,7 1027,7 89 -
06:33 7,7 6,0 3,2 West 12,9 1028,0 89 -
06:39 7,6 5,9 11,1 West 14,5 1028,0 89 -
06:43 7,6 5,9 7,9 WNW 14,5 1028,0 89 -
06:49 7,6 5,9 4,7 WNW 11,3 1028,0 89 -
06:53 7,6 5,9 7,9 WNW 14,5 1028,0 89 -
06:59 7,6 6,1 11,1 WNW 11,3 1028,0 90 -
07:03 7,6 6,1 13,0 WNW 12,9 1028,0 90 -
07:09 7,6 6,1 4,7 WNW 9,7 1028,0 90 -
07:13 7,6 6,1 1,4 WNW 8,0 1028,0 90 -
07:19 7,6 6,1 6,4 West 11,3 1028,0 90 -
07:23 7,6 6,1 11,1 WNW 12,9 1028,0 90 -
07:29 7,6 6,1 4,7 WNW 8,0 1028,0 90 -
07:33 7,6 6,1 9,7 West 9,7 1028,0 90 -
07:39 7,5 6,0 9,7 WNW 11,3 1028,0 90 -
07:43 7,5 6,0 14,3 WNW 16,1 1028,0 90 -
07:49 7,5 6,0 6,4 NW 14,5 1028,3 90 -
07:53 7,4 5,9 9,7 WNW 16,1 1028,3 90 -
07:59 7,4 5,9 11,1 WNW 14,5 1028,3 90 -
08:03 7,4 5,9 7,9 WNW 16,1 1028,3 90 -
08:09 7,4 5,9 6,4 WNW 11,3 1028,3 90 -
08:13 7,3 5,8 6,4 NW 11,3 1028,3 90 -
08:19 7,3 5,8 11,1 West 14,5 1028,3 90 -
08:23 7,3 5,8 7,9 West 12,9 1028,3 90 -
08:29 7,3 5,8 3,2 West 14,5 1028,3 90 -
08:33 7,3 5,8 4,7 WSW 14,5 1028,3 90 -
08:39 7,2 5,7 7,9 West 12,9 1028,7 90 -
08:43 7,2 5,7 1,4 WNW 9,7 1028,7 90 -
08:49 7,2 5,5 7,9 West 11,3 1028,3 89 -
08:53 7,2 5,5 7,9 NW 9,7 1028,7 89 -
08:59 7,1 5,4 6,4 West 12,9 1028,7 89 -
09:03 7,1 5,4 4,7 West 11,3 1028,7 89 -
09:09 7,1 5,4 9,7 WNW 14,5 1028,7 89 -
09:13 7,2 5,5 6,4 WNW 12,9 1028,7 89 -
09:19 7,2 5,5 4,7 WSW 14,5 1028,7 89 -
09:23 7,2 5,5 9,7 WNW 17,7 1029,0 89 -
09:29 7,2 5,5 13,0 West 19,3 1029,0 89 -
09:33 7,2 5,5 11,1 WNW 14,5 1029,0 89 -
09:39 7,2 5,5 6,4 WNW 14,5 1029,0 89 -
09:43 7,2 5,5 9,7 NW 17,7 1029,0 89 -
09:49 7,2 5,5 13,0 WNW 17,7 1029,0 89 -
09:53 7,2 5,7 4,7 WNW 9,7 1029,0 90 -
09:59 7,2 5,5 4,7 West 12,9 1029,3 89 -
10:03 7,2 5,5 7,9 West 12,9 1029,3 89 -
10:09 7,2 5,5 7,9 WNW 14,5 1029,3 89 -
10:13 7,2 5,7 7,9 West 12,9 1029,3 90 -
10:19 7,2 5,7 7,9 WNW 16,1 1029,3 90 -
10:23 7,2 5,7 7,9 WNW 17,7 1029,3 90 -
10:29 7,2 5,7 9,7 WNW 12,9 1029,3 90 -
10:33 7,2 5,7 13,0 WNW 16,1 1029,7 90 -
10:39 7,1 5,6 9,7 NW 22,5 1029,7 90 -
10:43 7,1 5,6 14,3 NW 19,3 1029,7 90 -
10:49 7,2 5,7 6,4 NW 19,3 1029,7 90 -
10:53 7,3 5,8 3,2 WNW 16,1 1029,7 90 -
10:59 7,3 5,6 11,1 WNW 16,1 1029,3 89 -
11:03 7,3 5,6 6,4 NW 12,9 1029,3 89 -
11:09 7,4 5,7 6,4 NW 12,9 1029,3 89 -
11:13 7,5 5,6 7,9 NW 14,5 1029,3 88 -
11:19 7,8 5,9 6,4 NW 11,3 1029,7 88 -
11:23 7,8 5,8 3,2 WSW 12,9 1029,7 87 -
11:29 7,8 5,8 6,4 West 14,5 1029,3 87 -
11:33 7,8 5,8 6,4 West 17,7 1029,7 87 -
11:39 7,8 5,8 14,3 West 14,5 1029,7 87 -
11:43 7,9 5,9 6,4 WNW 12,9 1029,7 87 -
11:49 7,8 5,6 6,4 WNW 19,3 1029,7 86 -
11:53 7,9 5,7 6,4 WNW 14,5 1029,7 86 -
11:59 7,7 5,5 13,0 WSW 22,5 1029,7 86 -
12:03 7,7 5,5 7,9 NW 16,1 1029,7 86 -
12:09 7,9 5,9 7,9 WNW 14,5 1029,3 87 -
12:13 7,9 5,7 16,3 NW 16,1 1029,3 86 -
12:19 7,8 5,3 6,4 NW 19,3 1029,3 84 -
12:23 7,9 5,4 11,1 WNW 16,1 1029,3 84 -
12:29 8,1 5,6 6,4 WNW 16,1 1029,3 84 -
12:33 8,1 5,6 13,0 WNW 16,1 1029,3 84 -
12:39 8,1 5,6 11,1 WNW 12,9 1029,3 84 -
12:43 8,2 5,8 13,0 WNW 16,1 1029,3 85 -
12:49 8,0 5,5 7,9 West 14,5 1029,3 84 -
12:53 7,9 5,4 9,7 WNW 12,9 1029,3 84 -
12:59 8,0 5,5 14,3 WSW 14,5 1029,0 84 -
13:03 8,2 5,7 11,1 WNW 14,5 1029,0 84 -
13:09 8,4 5,5 14,3 WNW 16,1 1029,0 82 -
13:13 8,5 5,6 6,4 NW 11,3 1029,0 82 -
13:19 8,7 5,4 13,0 West 17,7 1029,0 80 -
13:23 8,6 5,3 16,3 WNW 20,9 1029,0 80 -
13:29 8,5 5,2 17,7 WNW 19,3 1028,7 80 -
13:33 8,6 5,3 9,7 WNW 19,3 1028,7 80 -
13:39 8,6 5,3 9,7 WNW 17,7 1029,0 80 -
13:43 8,6 5,2 11,1 West 16,1 1028,7 79 -
13:49 8,6 5,3 7,9 WNW 12,9 1028,7 80 -
13:53 8,6 5,5 3,2 West 12,9 1028,7 81 -
13:59 8,6 5,2 6,4 NW 19,3 1028,7 79 -
14:03 8,5 5,1 9,7 WNW 12,9 1029,0 79 -
14:09 8,5 5,2 3,2 NNW 9,7 1028,7 80 -
14:13 8,4 5,2 9,7 WNW 12,9 1028,7 80 -
14:19 8,4 5,2 7,9 NW 16,1 1028,7 80 -
Daily Summary for Monday 10 December 2018
Time Temp. ( °C ) Dew pt. ( °C ) Wind ( km/h ) from Gust ( km/h ) Pressure ( hPa ) Humid.( % ) Rainrate ( cm )
High8,7 6,3 24,1 WNW ( 902/1669 ) 27,4 1029,7 90 -
Average7,7 5,8 9,7 WNW #86/172 16,5 1028,0 88 -
Low7,1 5,1 -   8,0 1025,6 79 -
Daily Tabular details for Monday 10 December 2018
Time Temp. ( °C ) Dew pt. ( °C ) Wind ( km/h ) from Gust ( km/h ) Pressure ( hPa ) Humid.( % ) Rainrate ( cm )
00:04 8,4 5,9 9,7 West 22,5 1025,6 84 -
00:08 8,4 5,9 6,4 WNW 20,9 1025,6 84 -
00:14 8,4 6,0 14,3 WNW 22,5 1026,0 85 -
00:18 8,4 6,0 20,9 WSW 25,7 1026,0 85 -
00:24 8,3 5,9 13,0 West 27,4 1026,0 85 -
00:28 8,3 6,1 16,3 West 20,9 1026,0 86 -
00:34 8,2 6,0 17,7 WSW 20,9 1026,0 86 -
00:38 8,1 5,9 11,1 WNW 16,1 1026,0 86 -
00:44 8,1 5,9 13,0 West 17,7 1026,0 86 -
00:48 8,0 6,0 6,4 West 19,3 1026,0 87 -
00:54 8,1 6,1 6,4 West 20,9 1026,3 87 -
00:58 8,1 6,1 22,7 WNW 22,5 1026,3 87 -
01:04 8,1 6,2 17,7 WNW 20,9 1026,3 88 -
01:08 8,1 6,2 14,3 WNW 20,9 1026,3 88 -
01:14 8,1 6,2 6,4 West 20,9 1026,3 88 -
01:18 8,1 6,1 11,1 WSW 22,5 1026,3 87 -
01:24 8,0 6,1 13,0 West 14,5 1026,6 88 -
01:28 8,0 6,1 11,1 WSW 20,9 1026,6 88 -
01:34 7,9 6,0 6,4 WNW 14,5 1026,6 88 -
01:38 7,8 5,9 9,7 NW 20,9 1026,6 88 -
01:44 7,8 5,9 16,3 WNW 22,5 1026,6 88 -
01:48 7,8 5,9 13,0 WSW 20,9 1026,6 88 -
01:54 7,8 5,9 6,4 West 17,7 1026,6 88 -
01:58 7,8 6,1 7,9 West 20,9 1026,6 89 -
02:04 7,8 6,1 13,0 WSW 22,5 1026,6 89 -
02:08 7,8 6,1 24,1 WNW 25,7 1026,6 89 -
02:14 7,8 6,1 17,7 WNW 17,7 1026,6 89 -
02:18 7,8 6,1 16,3 WNW 27,4 1026,6 89 -
02:24 7,8 6,1 11,1 West 22,5 1026,6 89 -
02:28 7,8 6,1 9,7 WNW 22,5 1027,0 89 -
02:34 7,8 6,1 14,3 WNW 22,5 1027,0 89 -
02:38 7,8 6,3 9,7 WNW 17,7 1027,0 90 -
02:44 7,7 6,2 9,7 WNW 17,7 1027,0 90 -
02:48 7,7 6,2 11,1 West 19,3 1027,3 90 -
02:54 7,8 6,1 11,1 WNW 19,3 1027,3 89 -
02:58 7,8 6,1 11,1 West 17,7 1027,3 89 -
03:04 7,7 6,2 16,3 WNW 16,1 1027,3 90 -
03:08 7,8 6,3 14,3 WNW 27,4 1027,3 90 -
03:14 7,8 6,3 16,3 WNW 22,5 1027,3 90 -
03:18 7,8 6,3 14,3 West 19,3 1027,3 90 -
03:24 7,8 6,1 13,0 WNW 19,3 1027,3 89 -
03:28 7,8 6,1 14,3 WNW 19,3 1027,3 89 -
03:34 7,8 6,1 13,0 West 22,5 1027,3 89 -
03:38 7,8 6,1 13,0 WNW 17,7 1027,3 89 -
03:44 7,8 6,1 19,5 NW 25,7 1027,3 89 -
03:48 7,8 6,1 11,1 WNW 22,5 1027,3 89 -
03:54 7,8 6,1 9,7 NW 22,5 1027,3 89 -
03:58 7,7 6,0 7,9 WNW 16,1 1027,3 89 -
04:04 7,7 6,2 11,1 WNW 17,7 1027,3 90 -
04:08 7,7 6,2 11,1 WSW 22,5 1027,3 90 -
04:14 7,7 6,2 7,9 WNW 17,7 1027,3 90 -
04:18 7,6 6,1 3,2 West 19,3 1027,3 90 -
04:24 7,6 6,1 6,4 West 17,7 1027,3 90 -
04:28 7,6 6,1 7,9 WNW 14,5 1027,3 90 -
04:34 7,6 6,1 7,9 NNW 22,5 1027,3 90 -
04:38 7,6 6,1 11,1 NNW 19,3 1027,3 90 -
04:44 7,6 6,1 9,7 WNW 14,5 1027,3 90 -
04:48 7,6 6,1 11,1 WNW 19,3 1027,3 90 -
04:54 7,6 6,1   Calm 20,9 1027,3 90 -
04:58 7,6 5,9 16,3 West 17,7 1027,3 89 -
05:04 7,6 5,9 7,9 WNW 14,5 1027,3 89 -
05:08 7,6 5,9 4,7 West 17,7 1027,3 89 -
05:14 7,6 5,9 6,4 WNW 9,7 1027,3 89 -
05:18 7,6 5,9 9,7 West 16,1 1027,3 89 -
05:24 7,7 6,0 4,7 WNW 11,3 1027,3 89 -
05:28 7,6 5,9 6,4 West 9,7 1027,3 89 -
05:32 7,7 6,0 14,3 WNW 14,5 1027,3 89 -
05:38 7,7 6,0 6,4 West 16,1 1027,3 89 -
05:43 7,7 6,0 6,4 West 9,7 1027,3 89 -
05:49 7,7 6,0 9,7 West 14,5 1027,3 89 -
05:53 7,7 6,0 9,7 WNW 14,5 1027,3 89 -
05:59 7,7 6,0 3,2 West 14,5 1027,3 89 -
06:03 7,7 6,0 6,4 West 14,5 1027,7 89 -
06:09 7,7 6,0 9,7 WNW 12,9 1027,7 89 -
06:13 7,7 6,0 11,1 WNW 12,9 1027,3 89 -
06:19 7,7 6,0 6,4 WSW 11,3 1027,3 89 -
06:23 7,7 6,0 16,3 WNW 19,3 1027,7 89 -
06:29 7,7 6,0 9,7 NW 17,7 1027,7 89 -
06:33 7,7 6,0 3,2 West 12,9 1028,0 89 -
06:39 7,6 5,9 11,1 West 14,5 1028,0 89 -
06:43 7,6 5,9 7,9 WNW 14,5 1028,0 89 -
06:49 7,6 5,9 4,7 WNW 11,3 1028,0 89 -
06:53 7,6 5,9 7,9 WNW 14,5 1028,0 89 -
06:59 7,6 6,1 11,1 WNW 11,3 1028,0 90 -
07:03 7,6 6,1 13,0 WNW 12,9 1028,0 90 -
07:09 7,6 6,1 4,7 WNW 9,7 1028,0 90 -
07:13 7,6 6,1 1,4 WNW 8,0 1028,0 90 -
07:19 7,6 6,1 6,4 West 11,3 1028,0 90 -
07:23 7,6 6,1 11,1 WNW 12,9 1028,0 90 -
07:29 7,6 6,1 4,7 WNW 8,0 1028,0 90 -
07:33 7,6 6,1 9,7 West 9,7 1028,0 90 -
07:39 7,5 6,0 9,7 WNW 11,3 1028,0 90 -
07:43 7,5 6,0 14,3 WNW 16,1 1028,0 90 -
07:49 7,5 6,0 6,4 NW 14,5 1028,3 90 -
07:53 7,4 5,9 9,7 WNW 16,1 1028,3 90 -
07:59 7,4 5,9 11,1 WNW 14,5 1028,3 90 -
08:03 7,4 5,9 7,9 WNW 16,1 1028,3 90 -
08:09 7,4 5,9 6,4 WNW 11,3 1028,3 90 -
08:13 7,3 5,8 6,4 NW 11,3 1028,3 90 -
08:19 7,3 5,8 11,1 West 14,5 1028,3 90 -
08:23 7,3 5,8 7,9 West 12,9 1028,3 90 -
08:29 7,3 5,8 3,2 West 14,5 1028,3 90 -
08:33 7,3 5,8 4,7 WSW 14,5 1028,3 90 -
08:39 7,2 5,7 7,9 West 12,9 1028,7 90 -
08:43 7,2 5,7 1,4 WNW 9,7 1028,7 90 -
08:49 7,2 5,5 7,9 West 11,3 1028,3 89 -
08:53 7,2 5,5 7,9 NW 9,7 1028,7 89 -
08:59 7,1 5,4 6,4 West 12,9 1028,7 89 -
09:03 7,1 5,4 4,7 West 11,3 1028,7 89 -
09:09 7,1 5,4 9,7 WNW 14,5 1028,7 89 -
09:13 7,2 5,5 6,4 WNW 12,9 1028,7 89 -
09:19 7,2 5,5 4,7 WSW 14,5 1028,7 89 -
09:23 7,2 5,5 9,7 WNW 17,7 1029,0 89 -
09:29 7,2 5,5 13,0 West 19,3 1029,0 89 -
09:33 7,2 5,5 11,1 WNW 14,5 1029,0 89 -
09:39 7,2 5,5 6,4 WNW 14,5 1029,0 89 -
09:43 7,2 5,5 9,7 NW 17,7 1029,0 89 -
09:49 7,2 5,5 13,0 WNW 17,7 1029,0 89 -
09:53 7,2 5,7 4,7 WNW 9,7 1029,0 90 -
09:59 7,2 5,5 4,7 West 12,9 1029,3 89 -
10:03 7,2 5,5 7,9 West 12,9 1029,3 89 -
10:09 7,2 5,5 7,9 WNW 14,5 1029,3 89 -
10:13 7,2 5,7 7,9 West 12,9 1029,3 90 -
10:19 7,2 5,7 7,9 WNW 16,1 1029,3 90 -
10:23 7,2 5,7 7,9 WNW 17,7 1029,3 90 -
10:29 7,2 5,7 9,7 WNW 12,9 1029,3 90 -
10:33 7,2 5,7 13,0 WNW 16,1 1029,7 90 -
10:39 7,1 5,6 9,7 NW 22,5 1029,7 90 -
10:43 7,1 5,6 14,3 NW 19,3 1029,7 90 -
10:49 7,2 5,7 6,4 NW 19,3 1029,7 90 -
10:53 7,3 5,8 3,2 WNW 16,1 1029,7 90 -
10:59 7,3 5,6 11,1 WNW 16,1 1029,3 89 -
11:03 7,3 5,6 6,4 NW 12,9 1029,3 89 -
11:09 7,4 5,7 6,4 NW 12,9 1029,3 89 -
11:13 7,5 5,6 7,9 NW 14,5 1029,3 88 -
11:19 7,8 5,9 6,4 NW 11,3 1029,7 88 -
11:23 7,8 5,8 3,2 WSW 12,9 1029,7 87 -
11:29 7,8 5,8 6,4 West 14,5 1029,3 87 -
11:33 7,8 5,8 6,4 West 17,7 1029,7 87 -
11:39 7,8 5,8 14,3 West 14,5 1029,7 87 -
11:43 7,9 5,9 6,4 WNW 12,9 1029,7 87 -
11:49 7,8 5,6 6,4 WNW 19,3 1029,7 86 -
11:53 7,9 5,7 6,4 WNW 14,5 1029,7 86 -
11:59 7,7 5,5 13,0 WSW 22,5 1029,7 86 -
12:03 7,7 5,5 7,9 NW 16,1 1029,7 86 -
12:09 7,9 5,9 7,9 WNW 14,5 1029,3 87 -
12:13 7,9 5,7 16,3 NW 16,1 1029,3 86 -
12:19 7,8 5,3 6,4 NW 19,3 1029,3 84 -
12:23 7,9 5,4 11,1 WNW 16,1 1029,3 84 -
12:29 8,1 5,6 6,4 WNW 16,1 1029,3 84 -
12:33 8,1 5,6 13,0 WNW 16,1 1029,3 84 -
12:39 8,1 5,6 11,1 WNW 12,9 1029,3 84 -
12:43 8,2 5,8 13,0 WNW 16,1 1029,3 85 -
12:49 8,0 5,5 7,9 West 14,5 1029,3 84 -
12:53 7,9 5,4 9,7 WNW 12,9 1029,3 84 -
12:59 8,0 5,5 14,3 WSW 14,5 1029,0 84 -
13:03 8,2 5,7 11,1 WNW 14,5 1029,0 84 -
13:09 8,4 5,5 14,3 WNW 16,1 1029,0 82 -
13:13 8,5 5,6 6,4 NW 11,3 1029,0 82 -
13:19 8,7 5,4 13,0 West 17,7 1029,0 80 -
13:23 8,6 5,3 16,3 WNW 20,9 1029,0 80 -
13:29 8,5 5,2 17,7 WNW 19,3 1028,7 80 -
13:33 8,6 5,3 9,7 WNW 19,3 1028,7 80 -
13:39 8,6 5,3 9,7 WNW 17,7 1029,0 80 -
13:43 8,6 5,2 11,1 West 16,1 1028,7 79 -
13:49 8,6 5,3 7,9 WNW 12,9 1028,7 80 -
13:53 8,6 5,5 3,2 West 12,9 1028,7 81 -
13:59 8,6 5,2 6,4 NW 19,3 1028,7 79 -
14:03 8,5 5,1 9,7 WNW 12,9 1029,0 79 -
14:09 8,5 5,2 3,2 NNW 9,7 1028,7 80 -
14:13 8,4 5,2 9,7 WNW 12,9 1028,7 80 -
14:19 8,4 5,2 7,9 NW 16,1 1028,7 80 -

Download your copy of this data-set  here

Our weather-data as stored at Weather Underground. Script developed by Jim McMurry. Adapted for the template by Leuven-Template.eu

You find our weather info also at:

Weather Underground

Equipment we use:

Weather-station
Davis Vue

Weather-program
Meteobridge

Weather-server
Raspberry PI 2 B+

Provider
1 and 1

Davis Vue

Meteobridge

Raspberry PI 2 B+

1 and 1